Volver al catálogo

COSMOS 1275 DEB

ActivoPO
NORAD 42183·DEBRIS·🇷🇺 Russia

Lanzado Jun 4, 1981 desde Plesetsk Cosmodrome

Loading…

Próximos Pases (próximas 24 horas)

TLE

ObsoletoSource: Space-Track

Época: Aug 28, 2026, 12:50 UTC

1 42183U 81053SX  26240.53535943  .00000706  00000-0  57928-3 0  9993
2 42183  82.9385 154.6531 0046375 233.4311 247.9581 13.87651835624658

Sigue COSMOS 1275 DEB en tiempo real con AllMySat

Download on the App Store